GW2606 Weather Reports


time (UTC)temp
C
wind
direction
speed
KPH
gust
KPH
rain 1hr
cm
rain 24hr
cm
rain mn
cm
humidity
%
barometer
mb
20260506150051 25 0 1.6 8.0 0.00 0.00 0.00 86 1009.6
20260506145538 25 160 4.8 8.0 0.00 0.00 0.00 86 1009.5
20260506145038 25 134 3.2 9.7 0.00 0.00 0.00 86 1009.5
20260506144553 25 96 1.6 9.7 0.00 0.00 0.00 86 1009.4
20260506144034 25 160 4.8 9.7 0.00 0.00 0.00 86 1009.4
20260506143536 25 149 3.2 11.3 0.00 0.00 0.00 86 1009.4
20260506143045 25 154 4.8 11.3 0.00 0.00 0.00 86 1009.3
20260506142536 25 151 6.4 12.9 0.00 0.00 0.00 86 1009.2
20260506142038 25 155 3.2 12.9 0.00 0.00 0.00 86 1009.2
20260506141552 25 158 3.2 12.9 0.00 0.00 0.00 86 1009.1
20260506141035 25 158 1.6 14.5 0.00 0.00 0.00 87 1009.0
20260506140535 25 173 8.0 17.7 0.00 0.00 0.00 87 1008.9
20260506140045 25 170 9.7 17.7 0.00 0.00 0.00 87 1008.8
20260506135537 25 150 9.7 16.1 0.00 0.00 0.00 87 1008.7
20260506135037 24 142 9.7 16.1 0.00 0.00 0.00 87 1008.7
20260506134548 24 157 6.4 16.1 0.00 0.00 0.00 87 1008.6
20260506134037 24 146 6.4 17.7 0.00 0.00 0.00 87 1008.6
20260506133538 24 174 6.4 17.7 0.00 0.00 0.00 88 1008.5
20260506133048 24 116 8.0 19.3 0.00 0.00 0.00 88 1008.4
20260506132537 24 117 9.7 19.3 0.00 0.00 0.00 88 1008.5
20260506132039 24 141 6.4 16.1 0.00 0.00 0.00 88 1008.3
20260506131558 24 164 9.7 20.9 0.00 0.00 0.00 88 1008.2
20260506131035 24 160 11.3 20.9 0.00 0.00 0.00 88 1008.2
20260506130535 24 136 8.0 17.7 0.00 0.00 0.00 88 1008.2
20260506130052 23 121 11.3 19.3 0.00 0.00 0.00 88 1008.1
20260506125534 23 151 11.3 19.3 0.00 0.00 0.00 88 1008.0
20260506125035 23 117 12.9 19.3 0.00 0.00 0.00 88 1007.8
20260506124543 23 127 9.7 19.3 0.00 0.00 0.00 88 1007.9
20260506124034 23 146 9.7 19.3 0.00 0.00 0.00 88 1007.8
20260506123536 23 140 11.3 24.1 0.00 0.00 0.00 88 1007.7
20260506123045 23 123 9.7 24.1 0.00 0.00 0.00 88 1007.8
20260506122539 23 132 9.7 17.7 0.00 0.00 0.00 88 1007.7
20260506122037 23 120 8.0 17.7 0.00 0.00 0.00 88 1007.6
20260506121547 23 136 11.3 20.9 0.00 0.00 0.00 88 1007.6
20260506121034 23 146 9.7 20.9 0.00 0.00 0.00 88 1007.6
20260506120538 23 123 9.7 19.3 0.00 0.00 0.00 88 1007.7
20260506120046 23 109 11.3 19.3 0.00 0.00 0.00 88 1007.6
20260506115535 24 130 9.7 19.3 0.00 0.00 0.00 87 1007.5
20260506115036 24 87 8.0 19.3 0.00 0.00 0.00 87 1007.5
20260506114553 24 117 12.9 19.3 0.00 0.00 0.00 87 1007.5
20260506114035 24 150 9.7 16.1 0.00 0.00 0.00 87 1007.5
20260506113535 24 147 9.7 17.7 0.00 0.00 0.00 87 1007.5
20260506113050 24 135 9.7 17.7 0.00 0.00 0.00 87 1007.5
20260506112535 24 126 6.4 16.1 0.00 0.00 0.00 87 1007.6
20260506112035 24 121 9.7 16.1 0.00 0.00 0.00 87 1007.6
20260506111552 24 96 6.4 17.7 0.00 0.00 0.00 87 1007.5
20260506111036 24 87 9.7 17.7 0.00 0.00 0.00 87 1007.5
20260506110535 24 124 11.3 17.7 0.00 0.00 0.00 87 1007.4
20260506110050 24 151 6.4 16.1 0.00 0.00 0.00 87 1007.3
20260506105535 24 142 9.7 16.1 0.00 0.00 0.00 86 1007.3
20260506105035 24 121 8.0 17.7 0.00 0.00 0.00 86 1007.3
20260506104549 24 121 9.7 17.7 0.00 0.00 0.00 86 1007.3
20260506104035 24 142 6.4 17.7 0.00 0.00 0.00 86 1007.3
20260506103535 24 119 6.4 17.7 0.00 0.00 0.00 86 1007.3
20260506103050 24 138 6.4 16.1 0.00 0.00 0.00 86 1007.2
20260506102535 24 124 8.0 19.3 0.00 0.00 0.00 86 1007.2
20260506102035 24 102 8.0 19.3 0.00 0.00 0.00 86 1007.2
20260506101549 25 96 11.3 17.7 0.00 0.00 0.00 86 1007.2
20260506101035 25 109 8.0 16.1 0.00 0.00 0.00 85 1007.3
20260506100538 25 109 6.4 12.9 0.00 0.00 0.00 85 1007.3
20260506100046 25 138 6.4 14.5 0.00 0.00 0.00 85 1007.3
20260506095538 25 128 8.0 16.1 0.00 0.00 0.00 85 1007.2
20260506095038 25 125 6.4 16.1 0.00 0.00 0.00 85 1007.3
20260506094559 25 115 4.8 17.7 0.00 0.00 0.00 85 1007.3
20260506094034 25 123 8.0 17.7 0.00 0.00 0.00 85 1007.3
20260506093539 25 130 9.7 17.7 0.00 0.00 0.00 85 1007.2
20260506093048 25 126 9.7 17.7 0.00 0.00 0.00 85 1007.3
20260506092534 25 109 9.7 16.1 0.00 0.00 0.00 85 1007.2
20260506092037 25 114 8.0 19.3 0.00 0.00 0.00 85 1007.1
20260506091550 25 123 9.7 19.3 0.00 0.00 0.00 85 1007.1
20260506091044 25 128 9.7 19.3 0.00 0.00 0.00 85 1007.1
20260506090534 25 103 9.7 19.3 0.00 0.00 0.00 85 1006.8
20260506090048 25 123 8.0 22.5 0.00 0.00 0.00 85 1006.8
20260506085535 25 147 12.9 22.5 0.00 0.00 0.00 85 1006.9
20260506085035 25 129 12.9 22.5 0.00 0.00 0.00 85 1006.8
20260506084546 25 113 12.9 20.9 0.00 0.00 0.00 85 1006.9
20260506084039 25 126 12.9 20.9 0.00 0.00 0.00 85 1006.8
20260506083538 25 133 6.4 16.1 0.00 0.00 0.00 85 1006.8
20260506083046 25 126 8.0 16.1 0.00 0.00 0.00 84 1006.7
20260506082535 25 126 6.4 17.7 0.00 0.00 0.00 84 1006.7
20260506082037 25 122 9.7 17.7 0.00 0.00 0.00 84 1006.5
20260506081555 25 131 8.0 14.5 0.00 0.00 0.00 84 1006.7
20260506081034 25 119 9.7 17.7 0.00 0.00 0.00 84 1006.7
20260506080534 25 109 8.0 17.7 0.00 0.00 0.00 84 1006.7
20260506073045 25 136 11.3 25.7 0.00 0.00 0.00 82 1006.7
20260506072538 25 130 11.3 25.7 0.00 0.00 0.00 81 1006.6
20260506072035 25 109 16.1 25.7 0.00 0.00 0.00 81 1006.6
20260506071549 25 108 12.9 22.5 0.00 0.00 0.00 81 1006.6
20260506071036 25 138 11.3 19.3 0.00 0.00 0.00 80 1006.6
20260506070534 26 103 9.7 17.7 0.00 0.00 0.00 80 1006.7
20260506062037 25 117 6.4 12.9 0.00 0.00 0.00 78 1006.7
20260506061546 25 76 4.8 16.1 0.00 0.00 0.00 78 1006.6
20260506061035 25 76 6.4 16.1 0.00 0.00 0.00 78 1006.6
20260506060537 25 84 6.4 14.5 0.00 0.00 0.00 78 1006.6
20260506051035 25 64 3.2 8.0 0.00 0.00 0.00 78 1006.5
20260506050535 25 68 3.2 6.4 0.00 0.00 0.00 77 1006.5
20260506045034 25 68 3.2 8.0 0.00 0.00 0.00 76 1006.6
20260506044545 25 68 4.8 9.7 0.00 0.00 0.00 76 1006.5
20260506044034 25 84 4.8 9.7 0.00 0.00 0.00 75 1006.7
20260506043535 25 94 3.2 6.4 0.00 0.00 0.00 75 1006.6
20260506043046 25 64 3.2 6.4 0.00 0.00 0.00 74 1006.6
20260506042537 25 64 1.6 4.8 0.00 0.00 0.00 74 1006.5
20260506042038 25 64 1.6 4.8 0.00 0.00 0.00 74 1006.5
20260506041550 25 0 1.6 3.2 0.00 0.00 0.00 73 1006.3
20260506041037 26 0 0.0 4.8 0.00 0.00 0.00 73 1006.3
20260506040535 26 0 0.0 4.8 0.00 0.00 0.00 73 1006.3
20260506040053 26 64 1.6 4.8 0.00 0.00 0.00 72 1006.2
20260506035535 26 64 1.6 4.8 0.00 0.00 0.00 72 1006.2
20260506035035 26 64 1.6 6.4 0.00 0.00 0.00 72 1006.2
20260506034544 26 64 3.2 6.4 0.00 0.00 0.00 71 1006.2
20260506034034 26 64 3.2 6.4 0.00 0.00 0.00 71 1006.1
20260506033534 26 64 3.2 6.4 0.00 0.00 0.00 71 1006.1
20260506033050 26 88 1.6 4.8 0.00 0.00 0.00 70 1006.0
20260506032535 26 88 3.2 4.8 0.00 0.00 0.00 70 1006.0
20260506032038 26 88 1.6 6.4 0.00 0.00 0.00 69 1005.8
20260506031557 26 88 3.2 6.4 0.00 0.00 0.00 69 1005.8
20260506031035 26 88 1.6 4.8 0.00 0.00 0.00 68 1005.8
20260506030536 27 88 1.6 4.8 0.00 0.00 0.00 68 1005.7
20260506030053 27 88 1.6 4.8 0.00 0.00 0.00 68 1005.6
20260506025534 27 88 1.6 4.8 0.00 0.00 0.00 67 1005.4
20260506025034 27 88 1.6 4.8 0.00 0.00 0.00 66 1005.5
20260506024600 27 88 1.6 4.8 0.00 0.00 0.00 66 1005.3
20260506024036 27 88 1.6 4.8 0.00 0.00 0.00 65 1005.3
20260506023536 28 88 1.6 4.8 0.00 0.00 0.00 64 1005.2
20260506023050 28 88 3.2 4.8 0.00 0.00 0.00 63 1005.2
20260506022537 28 88 1.6 4.8 0.00 0.00 0.00 62 1005.2
20260506022035 28 88 1.6 4.8 0.00 0.00 0.00 61 1005.1
20260506021549 28 88 1.6 6.4 0.00 0.00 0.00 60 1005.0
20260506021036 28 88 1.6 6.4 0.00 0.00 0.00 60 1005.1
20260506020535 28 96 3.2 8.0 0.00 0.00 0.00 60 1005.0
20260506020045 28 109 3.2 14.5 0.00 0.00 0.00 59 1004.9
20260506015539 28 139 4.8 14.5 0.00 0.00 0.00 59 1004.9
20260506015035 29 130 6.4 12.9 0.00 0.00 0.00 58 1004.7
20260506014545 29 132 3.2 9.7 0.00 0.00 0.00 57 1004.6
20260506014034 29 133 4.8 11.3 0.00 0.00 0.00 57 1004.7
20260506013535 29 115 4.8 11.3 0.00 0.00 0.00 56 1004.7
20260506013050 30 113 3.2 6.4 0.00 0.00 0.00 56 1004.6
20260506012535 30 113 3.2 9.7 0.00 0.00 0.00 55 1004.7
20260506012039 30 113 3.2 9.7 0.00 0.00 0.00 55 1004.6
20260506011540 30 98 1.6 9.7 0.00 0.00 0.00 55 1004.6
20260506011036 30 111 4.8 9.7 0.00 0.00 0.00 54 1004.5
20260506010537 30 121 3.2 14.5 0.00 0.00 0.00 54 1004.5
20260506010048 30 108 3.2 16.1 0.00 0.00 0.00 54 1004.4
20260506005535 30 129 8.0 16.1 0.00 0.00 0.00 53 1004.2
20260506005035 30 135 9.7 17.7 0.00 0.00 0.00 53 1004.2
20260506004546 30 97 8.0 17.7 0.00 0.00 0.00 53 1004.1
20260506004035 30 119 6.4 16.1 0.00 0.00 0.00 54 1004.2
20260506003535 30 101 6.4 16.1 0.00 0.00 0.00 53 1004.1
20260506003045 30 136 8.0 17.7 0.00 0.00 0.00 53 1004.1
20260506002537 31 126 12.9 17.7 0.00 0.00 0.00 53 1004.1
20260506002037 31 121 11.3 20.9 0.00 0.00 0.00 53 1004.0
20260506001549 31 135 9.7 20.9 0.00 0.00 0.00 53 1004.0
20260506001035 31 153 9.7 17.7 0.00 0.00 0.00 53 1004.1
20260506000537 31 117 11.3 17.7 0.00 0.00 0.00 52 1004.0
20260506000043 31 105 6.4 17.7 0.00 0.00 0.00 53 1004.0
20260505235536 31 128 9.7 17.7 0.00 0.00 0.00 52 1004.0
20260505235036 31 107 11.3 19.3 0.00 0.00 0.00 53 1004.2
20260505234551 31 136 9.7 19.3 0.00 0.00 0.00 53 1004.2
20260505234035 31 147 8.0 14.5 0.00 0.00 0.00 54 1004.3
20260505233536 31 84 6.4 14.5 0.00 0.00 0.00 55 1004.3
20260505233047 31 128 6.4 14.5 0.00 0.00 0.00 54 1004.3
20260505232534 31 64 4.8 12.9 0.00 0.00 0.00 53 1004.4
20260505232035 31 76 6.4 14.5 0.00 0.00 0.00 52 1004.4
20260505231559 31 98 8.0 14.5 0.00 0.00 0.00 53 1004.4
20260505231034 31 0 4.8 14.5 0.00 0.00 0.00 55 1004.5
20260505230534 31 108 9.7 14.5 0.00 0.00 0.00 54 1004.5
20260505230055 31 95 4.8 12.9 0.00 0.00 0.00 54 1004.6
20260505225536 31 82 6.4 12.9 0.00 0.00 0.00 53 1004.6
20260505225038 31 111 4.8 14.5 0.00 0.00 0.00 54 1004.6
20260505224544 31 88 6.4 14.5 0.00 0.00 0.00 54 1004.7
20260505224035 31 76 6.4 14.5 0.00 0.00 0.00 53 1004.7
20260505223536 31 40 4.8 12.9 0.00 0.00 0.00 54 1004.6
20260505223050 31 81 4.8 12.9 0.00 0.00 0.00 54 1004.6
20260505222537 31 63 1.6 14.5 0.00 0.00 0.00 54 1004.6
20260505222034 31 76 4.8 14.5 0.00 0.00 0.00 54 1004.6
20260505221545 31 38 6.4 11.3 0.00 0.00 0.00 55 1004.7
20260505221036 31 5 3.2 14.5 0.00 0.00 0.00 57 1004.8
20260505220536 30 336 6.4 14.5 0.00 0.00 0.00 56 1004.8
20260505220046 30 44 6.4 12.9 0.00 0.00 0.00 55 1004.9
20260505215535 30 36 4.8 11.3 0.00 0.00 0.00 55 1004.9
20260505215034 30 30 3.2 19.3 0.00 0.00 0.00 56 1004.9
20260505214546 30 11 4.8 19.3 0.00 0.00 0.00 56 1005.2
20260505214034 30 61 8.0 19.3 0.00 0.00 0.00 56 1005.1
20260505213535 30 34 9.7 17.7 0.00 0.00 0.00 55 1005.3
20260505213053 30 89 6.4 12.9 0.00 0.00 0.00 55 1005.3
20260505212533 30 46 4.8 12.9 0.00 0.00 0.00 56 1005.4
20260505212037 30 58 4.8 14.5 0.00 0.00 0.00 57 1005.4
20260505211552 30 86 6.4 17.7 0.00 0.00 0.00 57 1005.4
20260505211039 30 94 4.8 17.7 0.00 0.00 0.00 56 1005.4
20260505210535 30 60 8.0 17.7 0.00 0.00 0.00 54 1005.5
20260505210043 30 41 6.4 14.5 0.00 0.00 0.00 56 1005.6
20260505205538 30 0 1.6 11.3 0.00 0.00 0.00 56 1005.8
20260505205034 30 78 3.2 14.5 0.00 0.00 0.00 54 1005.7
20260505204554 30 47 6.4 14.5 0.00 0.00 0.00 54 1005.8
20260505204034 31 59 6.4 14.5 0.00 0.00 0.00 51 1005.9
20260505203710 31 360 3.2 16.1 0.00 0.00 0.00 53 1005.9
20260505201034 31 0 1.6 12.9 0.00 0.00 0.00 51 1006.2
20260505200535 31 352 3.2 11.3 0.00 0.00 0.00 53 1006.2
20260505200052 31 42 3.2 11.3 0.00 0.00 0.00 55 1006.3
20260505195536 31 115 4.8 12.9 0.00 0.00 0.00 53 1006.2
20260505195034 31 49 3.2 12.9 0.00 0.00 0.00 53 1006.3
20260505194551 31 46 1.6 12.9 0.00 0.00 0.00 54 1006.4
20260505194034 30 5 3.2 12.9 0.00 0.00 0.00 54 1006.4
20260505193534 30 40 1.6 8.0 0.00 0.00 0.00 54 1006.5
20260505193047 30 140 1.6 6.4 0.00 0.00 0.00 56 1006.5
20260505192539 30 324 1.6 14.5 0.00 0.00 0.00 54 1006.6
20260505192035 30 44 4.8 14.5 0.00 0.00 0.00 55 1006.6
20260505191606 30 51 3.2 14.5 0.00 0.00 0.00 57 1006.7
20260505191034 30 28 6.4 12.9 0.00 0.00 0.00 56 1006.9
20260505190534 30 69 3.2 8.0 0.00 0.00 0.00 57 1007.0
20260505190045 30 315 3.2 11.3 0.00 0.00 0.00 57 1007.0
20260505185534 30 336 4.8 11.3 0.00 0.00 0.00 58 1007.1
20260505185035 30 236 1.6 8.0 0.00 0.00 0.00 59 1007.1
20260505184546 30 135 1.6 8.0 0.00 0.00 0.00 60 1007.2
20260505184036 30 46 1.6 9.7 0.00 0.00 0.00 62 1007.3
20260505183535 30 138 4.8 9.7 0.00 0.00 0.00 62 1007.4
20260505183049 29 214 1.6 9.7 0.00 0.00 0.00 62 1007.4
20260505182535 29 66 4.8 9.7 0.00 0.00 0.00 63 1007.6
20260505182038 29 124 1.6 9.7 0.00 0.00 0.00 62 1007.6
20260505181544 29 212 3.2 9.7 0.00 0.00 0.00 62 1007.7
20260505181035 29 163 1.6 8.0 0.00 0.00 0.00 64 1007.7
20260505180533 29 99 1.6 8.0 0.00 0.00 0.00 66 1007.7
20260505180100 28 13 3.2 9.7 0.00 0.00 0.00 66 1007.7
20260505175536 28 182 3.2 9.7 0.00 0.00 0.00 66 1007.8
20260505175039 28 276 1.6 9.7 0.00 0.00 0.00 66 1007.9
20260505174601 28 225 4.8 9.7 0.00 0.00 0.00 65 1007.9
20260505174038 28 202 4.8 9.7 0.00 0.00 0.00 66 1008.1
20260505173536 28 65 1.6 11.3 0.00 0.00 0.00 67 1008.1
20260505173052 27 360 3.2 11.3 0.00 0.00 0.00 68 1008.2
20260505172537 27 64 1.6 16.1 0.00 0.00 0.00 68 1008.2
20260505172035 27 99 8.0 16.1 0.00 0.00 0.00 67 1008.2
20260505171549 27 0 1.6 6.4 0.00 0.00 0.00 68 1008.3
20260505171037 27 220 1.6 6.4 0.00 0.00 0.00 69 1008.4
20260505170540 27 298 1.6 11.3 0.00 0.00 0.00 70 1008.5
20260505170049 27 167 3.2 11.3 0.00 0.00 0.00 70 1008.3
20260505165536 26 163 4.8 11.3 0.00 0.00 0.00 71 1008.4
20260505165036 26 188 3.2 8.0 0.00 0.00 0.00 71 1008.3
20260505164549 26 360 1.6 8.0 0.00 0.00 0.00 72 1008.3
20260505164037 26 87 0.0 11.3 0.00 0.00 0.00 72 1008.3
20260505163536 26 191 0.0 11.3 0.00 0.00 0.00 75 1008.4
20260505163050 25 189 3.2 8.0 0.00 0.00 0.00 74 1008.3
20260505162535 25 0 3.2 12.9 0.00 0.00 0.00 75 1008.6
20260505162036 25 0 1.6 12.9 0.00 0.00 0.00 76 1008.6
20260505161552 25 187 3.2 11.3 0.00 0.00 0.00 76 1008.5
20260505161038 25 192 1.6 8.0 0.00 0.00 0.00 77 1008.6
20260505160537 25 0 1.6 8.0 0.00 0.00 0.00 77 1008.6
20260505153047 23 158 4.8 12.9 0.00 0.00 0.00 80 1008.5
20260505152537 23 132 6.4 17.7 0.00 0.00 0.00 80 1008.4
20260505152035 23 161 8.0 17.7 0.00 0.00 0.00 81 1008.3
20260505151548 23 164 6.4 17.7 0.00 0.00 0.00 82 1008.2
20260505151038 23 146 11.3 17.7 0.00 0.00 0.00 81 1008.2
20260505150536 23 138 9.7 16.1 0.00 0.00 0.00 82 1008.2